Location: Newark
(13.6797°N, 8.5297°E)
Time: 09:13:45
(UTC+00:00)

Transit 2A Rocket - Visible Passes

Search period start: 20 January 2020 00:00
Search period end: 30 January 2020 00:00
Orbit: 593 x 910 km, 66.7° (Epoch: 19 January)

Date Brightness Start Highest point End Pass type
(mag) Time Alt. Az. Time Alt. Az. Time Alt. Az.
20 Jan 6.6 04:09:29 10° S 04:13:29 29° ESE 04:17:16 10° NE visible
21 Jan 7.7 03:28:58 10° SE 03:31:01 13° ESE 03:33:01 10° E visible
21 Jan 5.4 05:09:21 10° SW 05:13:16 28° WNW 05:17:00 10° N visible
22 Jan 4.4 04:26:14 10° SSW 04:30:47 67° WNW 04:35:05 10° NNE visible
23 Jan 6.5 03:50:58 21° NE 03:50:58 21° NE 03:52:31 10° NE visible
